This demonstration page uses our WeatherBlox Daily Observations layout. Learn more.

Left ArrowRight Arrow

39.01783, -85.05884

Hourly Observations for December 1, 2019

Temp ( °F °C ) Dew Point ( °F °C ) Humidity (%) Winds ( mph kmh ) Pressure ( in mb ) Visibility ( mi km ) Precip ( " mm )
12:52 am 00:52 Cloudy with Mist and Fog 52 11.1 50 10 93 93 S 10 17 29.47 998 2 2 0.00 0.00
1:52 am 01:52 Cloudy with Light Rain 56 13.3 54 12.2 93 93 S 12 19 29.43 997 3 5 0.09 2.29
2:05 am 02:05 Cloudy with Light Rain 57 13.9 54 12.2 90 90 S 13 20 29.44 997 3 5 0.02 0.51
2:52 am 02:52 Cloudy 58 14.4 55 12.8 90 90 S 17 28 29.38 995 10 16 0.02 0.51
3:52 am 03:52 Cloudy with Heavy Rain 57 13.9 53 11.7 87 87 W 24 39 29.39 995 9 14 0.00 0.00
3:59 am 03:59 Cloudy with Light Rain 55 12.8 50 10 83 83 WSW 15 24 29.41 996 8 13 0.04 1.02
4:10 am 04:10 Cloudy 55 12.8 50 10 83 83 WSW 9 15 29.41 996 10 16 0.04 1.02
4:52 am 04:52 Mostly Cloudy 54 12.2 49 9.4 83 83 WSW 14 22 29.40 996 10 16 0.04 1.02
5:52 am 05:52 Mostly Cloudy 52 11.1 45 7.2 77 77 WSW 8 13 29.41 996 10 16 0.00 0.00
6:52 am 06:52 Partly Cloudy 49 9.4 45 7.2 86 86 SSW 7 11 29.43 997 10 16 0.00 0.00
7:52 am 07:52 Sunny 47 8.3 42 5.6 83 83 SSW 7 11 29.42 996 10 16 0.00 0.00
8:52 am 08:52 Sunny 50 10 42 5.6 74 74 S 9 15 29.41 996 10 16 0.00 0.00
9:52 am 09:52 Sunny 52 11.1 39 3.9 61 61 SW 18 30 29.42 996 10 16 0.00 0.00
10:52 am 10:52 Mostly Cloudy 50 10 34 1.1 54 54 WSW 15 24 29.43 997 10 16 0.00 0.00
11:52 am 11:52 Cloudy 48 8.9 32 0 54 54 W 17 28 29.44 997 10 16 0.00 0.00
12:52 pm 12:52 Cloudy 43 6.1 28 -2.2 56 56 W 16 26 29.47 998 10 16 0.00 0.00
1:52 pm 13:52 Cloudy 42 5.6 27 -2.8 55 55 WSW 17 28 29.47 998 10 16 0.00 0.00
2:52 pm 14:52 Cloudy 41 5 28 -2.2 60 60 W 18 30 29.50 999 10 16 0.00 0.00
3:52 pm 15:52 Cloudy 40 4.4 30 -1.1 68 68 SW 17 28 29.53 1000 10 16 0.00 0.00
4:52 pm 16:52 Cloudy with Light Rain 39 3.9 31 -0.6 73 73 SW 10 17 29.55 1001 10 16 0.00 0.00
5:52 pm 17:52 Cloudy with Light Rain 39 3.9 32 0 76 76 SW 13 20 29.57 1001 10 16 0.00 0.00
6:52 pm 18:52 Cloudy 36 2.2 33 0.6 89 89 SW 9 15 29.59 1002 10 16 0.03 0.76
7:08 pm 19:08 Cloudy 36 2.2 33 0.6 89 89 SW 10 17 29.62 1003 10 16 0.00 0.00
7:52 pm 19:52 Cloudy 36 2.2 33 0.6 89 89 WSW 10 17 29.60 1003 10 16 0.00 0.00
8:52 pm 20:52 Cloudy with Light Rain 36 2.2 33 0.6 89 89 SW 10 17 29.62 1003 9 14 0.00 0.00
9:52 pm 21:52 Cloudy with Light Rain 36 2.2 33 0.6 89 89 SW 12 19 29.62 1003 10 16 0.02 0.51
10:52 pm 22:52 Cloudy with Light Rain 36 2.2 33 0.6 89 89 WSW 12 19 29.63 1004 10 16 0.00 0.00
11:42 pm 23:42 Cloudy 36 2.2 33 0.6 89 89 WSW 9 15 29.65 1004 10 16 0.00 0.00
11:52 pm 23:52 Cloudy 36 2.2 33 0.6 89 89 WSW 9 15 29.63 1004 10 16 0.00 0.00

Powered by AerisWeather